CDT,Max TemperatureF,Mean TemperatureF,Min TemperatureF,Max Dew PointF,MeanDew PointF,Min DewpointF,Max Humidity, Mean Humidity, Min Humidity, Max Sea Level PressureIn, Mean Sea Level PressureIn, Min Sea Level PressureIn, Max VisibilityMiles, Mean VisibilityMiles, Min VisibilityMiles, Max Wind SpeedMPH, Mean Wind SpeedMPH, Max Gust SpeedMPH,PrecipitationIn, CloudCover, Events, WindDirDegrees
2011-10-1,77,64,50,36,34,30,55,36,18,30.28,30.22,30.17,10,10,5,10,4,,0.00,0,,111
2011-10-2,82,66,51,43,36,32,57,35,16,30.25,30.17,30.10,10,10,10,14,10,18,0.00,0,,137
2011-10-3,87,71,55,43,40,36,58,34,19,30.16,30.11,30.06,10,10,10,24,12,25,0.00,0,,149
2011-10-4,88,73,58,42,39,37,45,32,18,30.18,30.12,30.06,10,10,7,18,11,23,0.00,0,Rain,147
2011-10-5,84,69,55,45,41,38,54,36,20,30.11,30.04,29.96,10,10,10,23,13,31,0.00,1,,149
2011-10-6,84,74,64,47,43,39,45,34,22,29.97,29.91,29.84,10,10,10,29,18,41,0.00,2,,145
2011-10-7,82,74,67,61,56,47,63,52,41,29.99,29.94,29.88,10,10,10,25,21,37,0.00,4,,143
2011-10-8,77,68,60,63,60,50,100,90,48,30.10,30.05,29.93,10,6,1,22,12,37,1.07,7,Rain,123
2011-10-9,63,60,57,63,60,57,100,100,94,30.08,30.06,30.04,10,8,2,13,7,,0.82,8,Rain,271
2011-10-10,69,62,54,59,58,54,100,96,62,30.10,30.05,29.98,10,10,4,9,5,,0.03,7,Rain,246
2011-10-11,75,64,54,59,56,54,100,77,47,29.96,29.86,29.77,10,10,10,18,9,24,0.00,3,,155
2011-10-12,79,68,57,59,51,43,100,61,31,29.88,29.77,29.72,10,10,10,20,12,30,0.00,0,,273
2011-10-13,75,62,50,42,38,31,68,44,20,29.99,29.91,29.86,10,10,10,14,10,21,0.00,0,,308
2011-10-14,74,61,49,44,36,26,81,44,17,30.09,30.00,29.88,10,9,2,15,8,,0.00,0,,46
2011-10-15,78,62,46,52,41,32,75,48,26,30.12,30.03,29.91,10,10,10,14,6,21,0.00,0,,154
2011-10-16,74,65,55,53,47,38,77,54,32,30.00,29.93,29.86,10,10,10,22,13,28,0.00,0,,51
2011-10-17,64,56,48,39,34,26,64,48,34,30.08,29.93,29.80,10,10,10,25,13,34,0.00,3,Rain,41
2011-10-18,58,50,41,43,32,20,93,57,25,30.12,30.09,30.06,10,10,10,26,15,33,0.00,1,Rain,341
2011-10-19,56,48,38,29,25,22,67,46,27,30.16,30.10,30.06,10,10,10,23,12,31,0.00,0,,350
2011-10-20,60,45,30,29,25,22,76,49,28,30.16,30.10,30.04,10,10,4,8,3,,0.00,0,,39
2011-10-21,73,56,41,38,34,29,67,46,26,30.17,30.12,30.07,10,10,10,14,8,,0.00,0,,166
2011-10-22,70,58,47,49,44,37,78,57,44,30.10,30.05,29.99,10,10,10,9,5,,0.00,1,,103
2011-10-23,79,62,45,52,47,41,96,64,25,30.07,30.02,29.96,10,10,10,9,4,,0.00,0,,202
2011-10-24,83,64,46,56,49,42,100,70,23,30.13,30.05,29.93,10,9,4,23,6,33,0.00,0,,165
2011-10-25,84,71,57,56,48,37,81,51,19,29.92,29.83,29.75,10,10,10,26,20,37,0.00,0,,189
2011-10-26,61,54,47,42,38,34,65,56,38,30.13,30.02,29.90,10,10,10,25,18,30,0.00,3,,23
2011-10-27,57,48,40,39,34,27,84,64,37,30.22,30.15,30.12,10,10,10,17,12,22,0.00,1,Rain,10
2011-10-28,63,48,33,30,26,20,81,49,22,30.30,30.25,30.21,10,10,10,7,3,,0.00,0,,312
2011-10-29,68,50,33,32,28,23,77,46,20,30.21,30.08,29.95,10,10,10,24,8,34,0.00,0,,184
2011-10-30,63,51,40,35,28,20,74,44,20,30.17,30.10,29.96,10,10,10,16,11,21,0.00,0,,278
2011-10-31,73,55,37,45,35,25,73,50,27,30.16,30.07,29.98,10,10,10,18,8,,0.00,0,,186